Bellambi Observation History
Time Wind Speed Temp Pressure Rel. Hum Rain
03/06:30am WSW 15-21 kts 13.5°c n/a 52% 0.0mm
03/06:00am W 16-23 kts 13.1°c n/a 55% 0.0mm
03/05:30am W 15-26 kts 13.0°c n/a 55% 0.0mm
03/05:27am W 15-26 kts 13.2°c n/a 55% 0.0mm
03/05:00am W 14-23 kts 13.0°c n/a 54% 0.0mm
03/04:30am WSW 12-19 kts 13.0°c n/a 54% 0.0mm
03/04:13am WSW 15-25 kts 13.3°c n/a 52% 0.0mm
03/04:00am WSW 14-21 kts 13.0°c n/a 53% 0.0mm
03/03:30am W 8-15 kts 12.8°c n/a 54% 0.0mm
03/03:00am W 12-20 kts 12.9°c n/a 54% 0.0mm
03/02:30am W 11-17 kts 12.6°c n/a 55% 0.0mm
03/02:00am W 12-17 kts 12.6°c n/a 56% 0.0mm
03/01:30am WSW 10-17 kts 12.4°c n/a 57% 0.0mm
03/01:00am WSW 11-19 kts 12.4°c n/a 56% 0.0mm
03/12:30am WSW 9-14 kts 12.1°c n/a 57% 0.0mm
03/12:00am WSW 7-12 kts 11.8°c n/a 57% 0.0mm
Time Wind Speed Temp Pressure Rel. Hum Rain
02/11:30pm W 13-20 kts 11.9°c n/a 57% 0.0mm
02/11:00pm SW 13-20 kts 11.7°c n/a 57% 0.0mm
02/10:30pm WSW 15-23 kts 11.6°c n/a 56% 0.0mm
02/10:12pm W 15-25 kts 11.6°c n/a 55% 0.0mm
02/10:00pm W 16-25 kts 11.3°c n/a 56% 0.0mm
02/09:33pm W 15-25 kts 11.2°c n/a 57% 0.0mm
02/09:30pm W 15-23 kts 11.1°c n/a 57% 0.0mm
02/09:00pm W 14-23 kts 11.0°c n/a 56% 0.0mm
02/08:30pm W 14-23 kts 10.9°c n/a 57% 0.0mm
02/08:00pm WSW 13-24 kts 10.6°c n/a 58% 0.0mm
02/07:30pm W 14-19 kts 10.6°c n/a 58% 0.0mm
02/07:09pm W 16-26 kts 10.8°c n/a 57% 0.0mm
02/07:00pm W 15-22 kts 10.8°c n/a 58% 0.0mm
02/06:40pm W 15-27 kts 11.0°c n/a 57% 0.0mm
02/06:30pm W 13-23 kts 11.0°c n/a 58% 0.0mm
02/06:06pm W 15-25 kts 11.4°c n/a 57% 0.0mm
02/06:00pm W 13-22 kts 11.5°c n/a 57% 0.0mm
02/05:37pm W 15-25 kts 12.0°c n/a 56% 0.0mm
02/05:30pm W 13-20 kts 12.0°c n/a 56% 0.0mm
02/05:00pm W 9-13 kts 12.7°c n/a 54% 0.0mm
02/04:30pm WSW 12-20 kts 13.6°c n/a 50% 0.0mm
02/04:00pm WSW 10-14 kts 14.0°c n/a 52% 0.0mm
02/03:30pm W 11-16 kts 14.5°c n/a 50% 0.0mm
02/03:00pm WSW 10-16 kts 14.8°c n/a 49% 0.0mm
02/02:30pm SW 11-16 kts 16.5°c n/a 45% 0.0mm
02/02:00pm SW 11-15 kts 16.3°c n/a 47% 0.0mm
02/01:30pm SW 13-21 kts 16.0°c n/a 47% 0.0mm
02/01:00pm SW 15-22 kts 14.8°c n/a 51% 0.0mm
02/12:30pm SW 14-20 kts 14.9°c n/a 45% 0.0mm
02/12:02pm SW 16-26 kts 15.3°c n/a 46% 0.0mm
02/12:00pm SW 15-22 kts 15.2°c n/a 46% 0.0mm
02/11:39am SW 15-26 kts 14.8°c n/a 46% 0.0mm
02/11:30am SW 16-22 kts 15.4°c n/a 47% 0.0mm
02/11:00am WSW 13-24 kts 14.7°c n/a 48% 0.0mm
02/10:30am WSW 12-17 kts 13.5°c n/a 56% 0.0mm
02/10:00am WSW 13-18 kts 12.8°c n/a 56% 0.0mm
02/09:30am W 13-17 kts 11.9°c n/a 59% 0.0mm
02/09:00am W 11-17 kts 11.6°c n/a 59% 1.4mm
02/08:30am W 13-18 kts 10.5°c n/a 64% 1.4mm
02/08:00am W 11-16 kts 9.8°c n/a 69% 1.4mm
02/07:30am W 10-15 kts 8.7°c n/a 73% 1.4mm
02/07:00am W 10-16 kts 8.3°c n/a 78% 1.2mm
02/06:30am WSW 12-18 kts 9.0°c n/a 72% 0.4mm
02/06:00am WSW 10-17 kts 10.8°c n/a 57% 0.0mm
02/05:30am WSW 13-20 kts 10.6°c n/a 53% 0.0mm
02/05:00am WSW 13-19 kts 10.4°c n/a 54% 0.0mm
02/04:30am W 9-16 kts 9.7°c n/a 56% 0.0mm
02/04:00am W 12-17 kts 9.8°c n/a 56% 0.0mm
02/03:30am W 16-24 kts 9.5°c n/a 56% 0.0mm
02/03:00am W 15-26 kts 9.3°c n/a 56% 0.0mm
02/02:30am W 16-29 kts 9.6°c n/a 56% 0.0mm
02/02:00am WNW 17-28 kts 9.7°c n/a 55% 0.0mm
02/01:30am WNW 19-31 kts 10.1°c n/a 54% 0.0mm
02/01:00am WNW 18-30 kts 10.4°c n/a 52% 0.0mm
02/12:30am WNW 21-37 kts 10.6°c n/a 51% 0.0mm
02/12:25am WNW 20-37 kts 10.6°c n/a 51% 0.0mm
02/12:05am W 15-27 kts 10.4°c n/a 53% 0.0mm
02/12:00am W 13-27 kts 10.4°c n/a 53% 0.0mm
Time Wind Speed Temp Pressure Rel. Hum Rain
01/11:30pm W 9-19 kts 10.5°c n/a 53% 0.0mm
01/11:00pm W 6-14 kts 10.6°c n/a 55% 0.0mm
01/10:30pm W 10-20 kts 10.8°c n/a 54% 0.0mm
01/10:00pm WNW 9-14 kts 10.7°c n/a 55% 0.0mm
01/09:30pm W 6-12 kts 10.8°c n/a 54% 0.0mm
01/09:00pm W 12-18 kts 11.5°c n/a 51% 0.0mm
01/08:30pm W 12-21 kts 11.9°c n/a 50% 0.0mm
01/08:00pm WNW 18-30 kts 12.3°c n/a 48% 0.0mm
01/07:30pm WNW 18-40 kts 12.8°c n/a 48% 0.0mm
01/07:07pm WNW 19-30 kts 12.9°c n/a 50% 0.0mm
01/07:00pm WNW 18-26 kts 13.0°c n/a 51% 0.0mm
01/06:33pm WNW 15-25 kts 13.2°c n/a 52% 0.0mm
01/06:30pm WNW 15-23 kts 13.2°c n/a 53% 0.0mm
01/06:05pm W 15-25 kts 13.4°c n/a 54% 0.0mm
01/06:00pm W 16-25 kts 13.4°c n/a 54% 0.0mm
01/05:30pm W 18-28 kts 14.4°c n/a 49% 0.0mm
01/05:05pm W 16-28 kts 16.5°c n/a 42% 0.0mm
01/05:00pm W 13-22 kts 17.0°c n/a 41% 0.0mm
01/04:30pm WNW 11-17 kts 18.3°c n/a 36% 0.0mm
01/04:00pm NW 12-16 kts 18.8°c n/a 35% 0.0mm
01/03:30pm WNW 8-13 kts 19.5°c n/a 32% 0.0mm
01/03:00pm WNW 8-14 kts 20.3°c n/a 30% 0.0mm
01/02:30pm WNW 10-16 kts 21.7°c n/a 33% 0.0mm
01/02:00pm W 9-15 kts 21.2°c n/a 32% 0.0mm
01/01:30pm NNW 11-21 kts 22.3°c n/a 32% 0.0mm
01/01:29pm NNW 10-20 kts 22.3°c n/a 30% 0.0mm
01/01:00pm N 6-9 kts 21.9°c n/a 40% 0.0mm
01/12:30pm NE 6-9 kts 21.0°c n/a 47% 0.0mm
01/12:00pm NNE 10-15 kts 20.3°c n/a 49% 0.0mm
01/11:30am NNE 9-13 kts 20.0°c n/a 54% 0.0mm
01/11:00am NNE 9-12 kts 19.4°c n/a 58% 0.0mm
01/10:30am NNE 7-10 kts 19.2°c n/a 52% 0.0mm
01/10:00am N 6-9 kts 18.8°c n/a 53% 0.0mm
01/09:30am NNW 4-6 kts 18.2°c n/a 55% 0.0mm
01/09:00am NW 4-7 kts 17.6°c n/a 53% 0.0mm
01/08:30am NW 8-13 kts 16.9°c n/a 55% 0.0mm
01/08:00am NNW 9-13 kts 16.4°c n/a 56% 0.0mm
01/07:30am NNW 16-20 kts 16.1°c n/a 61% 0.0mm
01/07:00am NNW 17-21 kts 15.9°c n/a 59% 0.0mm
01/06:30am NNW 16-20 kts 16.2°c n/a 59% 0.0mm
01/06:00am NNW 16-20 kts 16.4°c n/a 58% 0.0mm
01/05:30am NNW 15-19 kts 16.4°c n/a 60% 0.0mm
01/05:27am NNW 14-19 kts 16.3°c n/a 60% 0.0mm
01/05:00am NNW 6-9 kts 15.7°c n/a 59% 0.0mm
01/04:30am NNE 8-10 kts 16.1°c n/a 57% 0.0mm
01/04:00am N 8-11 kts 16.2°c n/a 55% 0.0mm
01/03:30am ESE 4-6 kts 14.9°c n/a 62% 0.0mm
01/03:00am ESE 5-7 kts 15.4°c n/a 56% 0.0mm
01/02:30am SW 2-5 kts 14.3°c n/a 62% 0.0mm
01/02:00am NW 3-4 kts 13.3°c n/a 63% 0.0mm
01/01:30am NW 5 kts 13.2°c n/a 65% 0.0mm
01/01:00am NNW 5-7 kts 13.5°c n/a 65% 0.0mm
01/12:30am NNW 6-7 kts 13.9°c n/a 65% 0.0mm
01/12:00am NNW 6-7 kts 13.8°c n/a 66% 0.0mm